Location: Banff
(51.1667°N, 115.5667°W)
Time: 07:16:41
(UTC+00:00)

S-56A Canister/Altair - Pass Details

Date: 29 November 2020
Orbit: 633 x 2499 km, 38.9° (Epoch: 21 January)

Event Time Altitude Azimuth Distance (km) Brightness Sun altitude
Rises 01:35:01 0° 201° (SSW) 5,794 12.5 -17.3°
Reaches altitude 10° 01:40:47 10° 186° (S) 4,479 11.6 -18.2°
Maximum altitude 01:47:35 18° 150° (SSE) 3,441 10.6 -19.2°
Enters shadow 01:51:29 14° 124° (SE) 3,416 10.4 -19.8°
Drops below altitude 10° 01:53:10 10° 113° (ESE) 3,568 - -20.1°
Sets 01:56:57 0° 95° (E) 4,216 - -20.7°
